Showing default

PACE-1, 48909

Orbit data source: Space-Track

PACE-1, 48909 is a payload satellite owned by ARC (US) in SSO that was launched on Wed, 30 Jun 2021 UTC via an FALCON 9 launch vehicle from the Air Force Eastern Test Range (AFETR). Payloads include a variety of satellites, spacecraft, and rockets equipped with specific instruments for various scientific and technological missions. These include communications satellites like Starlink; space stations such as the ISS; scientific satellites like the Hubble; Earth observation satellites from companies like Planet Labs, Umbra, and HawkEye 360; GPS; miniature CubeSats for education and research; and military/defense satellites.

Loading next visibility...
PACE-1 details
Identifier
48909, 2021-059AG
Orbit
SSO
Last TLE update9 hours ago
Origin
Flag of USARC (US)
ManufacturerARC
MissionOperational Civil Technology
Bus & MotorCUBESAT 6U, Unknown motor
Mass10 kg wet, 10 kg dry
Launch date (UTC)
2021-06-30 (4 years ago)
Launch vehicle
FALCON 9
Launch site
Air Force Eastern Test Range (AFETR)
Object type
Payload
Rocket body
Debris
Shape & HBRBox, 0.3 m
Radar Cross Section0.080 m², Small (<0.1 m²)

Expand to show TLE details & history

TLE from 9 hours ago
0 PACE-1
1 48909U 21059AG  25014.96230842  .00020384  00000-0  54812-3 0  9993
2 48909  97.6595 170.6128 0006817  54.7627 305.4254 15.37904133197298
Epoch: 2025-01-14T23:05Z
Definitive object data (Epoch: 2025-01-14T23:05:43.447Z)
Latitude-0.00005°
Longitude69.5203°
Altitude452.718 km
Speed7.642 km/s
True Right ascension11h 22m 27s
True Declination0° 00' 00"
Sunlit
Object was in full shadow at TLE epoch
Visualization TLE readout
Latitude3.55324°
Longitude-109.63134°
Altitude457.504 km
Speed7.637 km/s
Apparent Right ascension22h 08m 52s
Apparent Declination-18° 40' 58"
Sunlit
Object is in daylight
Visualization observer readout
Local Sidereal Time08:19:35
Azimuth304.099° NW
Elevation-58.328°
Doppler factor1
Orbital elements
Apogee altitude453.915 km
Perigee altitude444.607 km
Semi-major axis6,827.398 km
Eccentricity0.0006817
Inclination97.6595°
RAAN170.6128°
Arg. of periapsis54.7627°
True anomaly305.36171°
Mean anomaly305.4254°
Eccentric anomaly305.39356°
Mean motion3.84734 °/min
BSTAR0.00054812
Orbital period93.57 mins
Loading maneuver chart data...
Loading historical data...
Loading historical data...
Loading historical data...
Loading historical data...
Loading historical data...
Loading historical data...
Loading historical data...

PACE-1 Visibility forecast

Observer location: undefined°, undefined

Span
Click to sort rows by Start time (UTC) header in descending order
Start Az.
Max El. time (UTC)
Max El. Az.
Max El.
End time (UTC)
End Az.
6 mins2025-01-15 10:09:00.910Z159.997° S2025-01-15 10:12:00.910Z93.183° ESE43.42°2025-01-15 10:15:00.910Z352.799° N
4 mins2025-01-15 23:06:00.910Z17.719° NNE2025-01-15 23:07:00.910Z30.918° NE42.387°2025-01-15 23:10:00.910Z189.671° SSW
|